Change the Weather History Date:

Sunday, December 23, 2012

  Actual Average (KPBG) Record (KPBG)
Temperature  
Mean Temperature 20 °F 22 °F  
Max Temperature 22 °F 31 °F 56 °F (1949)
Min Temperature 17 °F 13 °F -15 °F (1989)
Degree Days  
Heating Degree Days 46 43  
Month to date heating degree days 896  
Since 1 July heating degree days 2530  
Cooling Degree Days 0 0  
Month to date cooling degree days 0  
Year to date cooling degree days 346  
Moisture  
Dew Point 13 °F    
Average Humidity 77    
Maximum Humidity 92    
Minimum Humidity 65    
Precipitation  
Precipitation 0.00 in - 0.53 in (1990)
Month to date precipitation  
Year to date precipitation  
Sea Level Pressure  
Sea Level Pressure 29.78 in    
Wind  
Wind Speed 6 mph (WNW)    
Max Wind Speed 12 mph    
Max Gust Speed 22 mph    
Visibility 8 miles    
Events Snow    
T = Trace of Precipitation, MM = Missing Value Source: NWS Daily Summary

Daily Weather History Graph

Daily Weather History Graph

Search for Another Location

Airport or City:

Trip Planner

Search our weather history database for the weather conditions in past years. The results will help you decide how hot, cold, wet, or windy it might be!

Date:

Astronomy

Dec. 23, 2012 Rise Set
Actual Time 7:28 AM EST 4:15 PM EST
Civil Twilight 6:54 AM EST 4:48 PM EST
Nautical Twilight 6:17 AM EST 5:26 PM EST
Astronomical Twilight 5:41 AM EST 6:01 PM EST
Moon 1:09 PM EST (12/23) 3:02 AM EST (12/23)
Length of Visible Light 9h 54m
Length of Day
8h 46m
Waxing Gibbous, 81% of the Moon is Illuminated
Dec 23
Waxing Gibbous
Dec 28
Full
Jan 4
Last Quarter
Jan 11
New
Jan 18
First Quarter

Hourly Weather History & Observations

Time (EST) Temp. Windchill Dew Point Humidity Pressure Visibility Wind Dir Wind Speed Gust Speed Precip Events Conditions
12:15 AM 18.3 °F 5.9 °F 15.1 °F 87% 29.71 in 1.2 mi West 11.5 mph 17.3 mph N/A Snow Light Snow
12:35 AM 18.5 °F 7.5 °F 13.5 °F 81% 29.72 in 5.0 mi West 9.2 mph 16.1 mph N/A Snow Light Snow
12:55 AM 18.5 °F 6.1 °F 12.9 °F 79% 29.72 in 7.0 mi West 11.5 mph 20.7 mph N/A Snow Light Snow
1:15 AM 18.5 °F 7.5 °F 12.6 °F 78% 29.73 in 7.0 mi West 9.2 mph 20.7 mph N/A Snow Light Snow
1:35 AM 18.5 °F 8.4 °F 12.0 °F 76% 29.74 in 7.0 mi West 8.1 mph 19.6 mph N/A Snow Light Snow
1:55 AM 18.3 °F 7.3 °F 11.8 °F 76% 29.74 in 7.0 mi West 9.2 mph 19.6 mph N/A Snow Light Snow
2:15 AM 18.3 °F 6.6 °F 11.3 °F 74% 29.75 in 7.0 mi West 10.4 mph 21.9 mph N/A Snow Light Snow
2:35 AM 18.1 °F 7.1 °F 10.2 °F 71% 29.75 in 10.0 mi West 9.2 mph 20.7 mph N/A   Overcast
2:55 AM 17.2 °F 6.8 °F 9.5 °F 72% 29.76 in 10.0 mi West 8.1 mph - N/A   Overcast
3:15 AM 17.6 °F 5.0 °F 9.5 °F 71% 29.77 in 10.0 mi West 11.5 mph 18.4 mph N/A   Overcast
3:35 AM 17.6 °F 7.3 °F 9.3 °F 70% 29.78 in 10.0 mi West 8.1 mph 16.1 mph N/A   Overcast
3:55 AM 17.4 °F 5.4 °F 9.0 °F 69% 29.78 in 10.0 mi West 10.4 mph 19.6 mph N/A   Overcast
4:15 AM 17.1 °F 7.6 °F 9.3 °F 72% 29.79 in 10.0 mi West 6.9 mph - N/A   Overcast
4:55 AM 17.1 °F 7.6 °F 10.0 °F 74% 29.80 in 7.0 mi West 6.9 mph - N/A Snow Light Snow
5:15 AM 17.1 °F 7.6 °F 10.6 °F 76% 29.80 in 4.0 mi WNW 6.9 mph - N/A Snow Light Snow
5:35 AM 17.1 °F 10.0 °F 11.1 °F 77% 29.81 in 7.0 mi WNW 4.6 mph - N/A Snow Light Snow
5:55 AM 17.1 °F 6.6 °F 9.5 °F 72% 29.81 in 10.0 mi West 8.1 mph - N/A   Overcast
6:15 AM 17.1 °F - 9.5 °F 72% 29.81 in 10.0 mi Calm Calm - N/A   Mostly Cloudy
6:35 AM 17.1 °F 11.7 °F 9.5 °F 72% 29.81 in 10.0 mi West 3.5 mph - N/A   Mostly Cloudy
6:55 AM 17.1 °F 10.0 °F 9.5 °F 72% 29.81 in 10.0 mi West 4.6 mph - N/A   Mostly Cloudy
7:15 AM 17.1 °F 5.8 °F 9.5 °F 72% 29.81 in 10.0 mi WNW 9.2 mph - N/A   Overcast
7:35 AM 17.1 °F 7.6 °F 9.5 °F 72% 29.81 in 10.0 mi WNW 6.9 mph - N/A   Overcast
7:55 AM 17.1 °F 8.7 °F 10.0 °F 74% 29.81 in 10.0 mi West 5.8 mph - N/A   Overcast
8:15 AM 17.1 °F 10.0 °F 10.0 °F 74% 29.81 in 10.0 mi West 4.6 mph - N/A   Overcast
8:55 AM 17.6 °F - 10.4 °F 73% 29.80 in 10.0 mi Calm Calm - N/A   Overcast
9:15 AM 18.1 °F - 10.6 °F 72% 29.81 in 10.0 mi Calm Calm - N/A   Overcast
9:35 AM 18.3 °F - 10.9 °F 73% 29.81 in 10.0 mi Calm Calm - N/A   Overcast
9:55 AM 18.7 °F 13.5 °F 10.9 °F 72% 29.81 in 10.0 mi West 3.5 mph - N/A   Overcast
10:15 AM 19.4 °F 14.3 °F 11.1 °F 70% 29.81 in 10.0 mi WNW 3.5 mph - N/A   Overcast
10:35 AM 19.4 °F 11.5 °F 10.4 °F 68% 29.81 in 10.0 mi WNW 5.8 mph - N/A   Overcast
10:55 AM 19.8 °F 14.7 °F 10.6 °F 68% 29.80 in 10.0 mi WNW 3.5 mph - N/A   Overcast
11:15 AM 20.3 °F 13.8 °F 10.9 °F 67% 29.79 in 10.0 mi WNW 4.6 mph - N/A   Overcast
11:35 AM 21.2 °F - 11.3 °F 66% 29.79 in 10.0 mi Calm Calm - N/A   Mostly Cloudy
11:55 AM 22.1 °F - 12.0 °F 65% 29.78 in 10.0 mi Calm Calm - N/A   Overcast
12:15 PM 22.1 °F 17.4 °F 11.8 °F 65% 29.78 in 10.0 mi WNW 3.5 mph - N/A   Overcast
12:35 PM 22.1 °F 17.4 °F 12.0 °F 65% 29.77 in 10.0 mi SW 3.5 mph - N/A   Overcast
12:55 PM 22.1 °F - 12.2 °F 66% 29.77 in 10.0 mi Calm Calm - N/A   Overcast
1:15 PM 22.1 °F 14.7 °F 13.1 °F 68% 29.76 in 10.0 mi SSE 5.8 mph - N/A   Overcast
1:35 PM 22.1 °F - 13.1 °F 68% 29.75 in 10.0 mi Calm Calm - N/A   Overcast
1:55 PM 22.1 °F - 13.1 °F 68% 29.75 in 10.0 mi Calm Calm - N/A   Overcast
2:15 PM 22.1 °F - 12.9 °F 68% 29.74 in 10.0 mi Calm Calm - N/A   Overcast
2:35 PM 22.1 °F - 13.5 °F 69% 29.74 in 10.0 mi Calm Calm - N/A   Overcast
2:55 PM 22.1 °F - 13.8 °F 70% 29.74 in 10.0 mi Calm Calm - N/A   Overcast
3:15 PM 22.1 °F - 14.0 °F 71% 29.74 in 10.0 mi Calm Calm - N/A   Overcast
3:35 PM 22.5 °F - 15.1 °F 73% 29.74 in 5.0 mi Calm Calm - N/A Snow Light Snow
3:55 PM 22.1 °F - 15.3 °F 75% 29.73 in 4.0 mi Calm Calm - N/A Snow Light Snow
4:15 PM 22.1 °F - 16.2 °F 78% 29.74 in 4.0 mi Calm Calm - N/A Snow Light Snow
4:35 PM 21.9 °F - 16.9 °F 81% 29.74 in 3.0 mi Calm Calm - N/A Snow Light Snow
4:55 PM 21.2 °F - 17.1 °F 84% 29.74 in 4.0 mi Calm Calm - N/A Snow Light Snow
5:15 PM 20.8 °F - 17.4 °F 87% 29.74 in 2.0 mi Calm Calm - N/A Snow Light Snow
5:55 PM 20.7 °F - 18.1 °F 90% 29.74 in 2.0 mi Calm Calm - N/A Snow Light Snow
6:15 PM 20.3 °F 15.4 °F 18.0 °F 91% 29.75 in 1.5 mi North 3.5 mph - N/A Snow Light Snow
6:35 PM 20.1 °F 12.3 °F 17.6 °F 90% 29.76 in 2.0 mi North 5.8 mph - N/A Snow Light Snow
6:55 PM 19.9 °F 12.1 °F 17.6 °F 91% 29.76 in 1.8 mi North 5.8 mph - N/A Snow Light Snow
7:15 PM 19.8 °F 13.2 °F 17.6 °F 91% 29.77 in 3.0 mi North 4.6 mph - N/A Snow Light Snow
7:35 PM 19.8 °F 14.7 °F 17.6 °F 91% 29.77 in 7.0 mi North 3.5 mph - N/A Snow Light Snow
7:55 PM 19.4 °F 11.5 °F 17.4 °F 92% 29.79 in 5.0 mi North 5.8 mph - N/A Snow Light Snow
8:15 PM 19.4 °F 14.3 °F 17.2 °F 91% 29.80 in 5.0 mi North 3.5 mph - N/A Snow Light Snow
8:35 PM 19.4 °F - 17.2 °F 91% 29.81 in 5.0 mi Calm Calm - N/A Snow Light Snow
8:55 PM 19.4 °F 14.3 °F 17.1 °F 91% 29.82 in 10.0 mi NNW 3.5 mph - N/A   Overcast
9:15 PM 19.4 °F - 17.1 °F 91% 29.82 in 10.0 mi Calm Calm - N/A   Overcast
9:35 PM 19.4 °F - 16.7 °F 89% 29.83 in 10.0 mi Calm Calm - N/A Snow Light Snow
9:55 PM 19.4 °F 12.8 °F 16.7 °F 89% 29.84 in 10.0 mi NW 4.6 mph - N/A   Overcast
10:15 PM 19.0 °F 12.3 °F 15.8 °F 87% 29.85 in 10.0 mi West 4.6 mph - N/A Snow Light Snow
10:35 PM 18.5 °F 13.3 °F 14.9 °F 86% 29.86 in 5.0 mi West 3.5 mph - N/A Snow Light Snow
10:55 PM 18.3 °F 13.1 °F 14.5 °F 85% 29.87 in 10.0 mi WNW 3.5 mph - N/A Snow Light Snow
11:15 PM 18.3 °F 13.1 °F 14.0 °F 83% 29.87 in 7.0 mi WNW 3.5 mph - N/A Snow Light Snow
11:35 PM 18.0 °F 12.7 °F 13.8 °F 84% 29.87 in 5.0 mi NW 3.5 mph - N/A Snow Light Snow
11:55 PM 17.1 °F - 12.9 °F 84% 29.88 in 10.0 mi Calm Calm - N/A   Overcast